Regional Weather Roundup
Issued by NWS

Home | Current Version | Previous Version | Text Only | Print | Product List | Glossary On
Versions: 1 2 3 4 5 6 7 8 9 10 11 12 13 14 15 16 17 18 19 20 21 22 23 24 25 26 27 28 29 30 31 32 33 34 35 36 37 38 39 40 41 42 43 44 45 46 47 48 49 50
000
ASUS44 KFWD 260103
RWRTX
NORTH TEXAS HOURLY WEATHER ROUNDUP
NATIONAL WEATHER SERVICE FORT WORTH TX
800 PM CDT WED MAY 25 2016

NOTE: "FAIR" INDICATES FEW OR NO CLOUDS BELOW 12,000 FEET WITH NO
SIGNIFICANT WEATHER AND/OR OBSTRUCTIONS TO VISIBILITY.

TXZ118-119-260200-
DALLAS/FORT WORTH METROPLEX

CITY           SKY/WX    TMP DP  RH WIND       PRES   REMARKS
DFW AIRPORT    CLOUDY    84  74  71 S15       29.91R HX  91
DALLAS LOVE    CLOUDY    85  74  69 S18G24    29.92R HX  92
FTW MEACHAM    CLOUDY    85  75  72 SE13      29.89S HX  93
DAL-EXECUTIVE  CLOUDY    83  74  74 SE8       29.92R
FTW-ALLIANCE   MOCLDY    83  75  77 SE14G20   29.90R HX  90
FTW-NAS-JRB    PTCLDY    85  75  72 SE12      29.90S HX  93
ARLINGTON      CLOUDY    86  75  69 SE14      29.91S HX  95
GRAND PRAIRIE  MOCLDY    82  73  74 SE7       29.93R
ADDISON        MOCLDY    84  75  74 SE18      29.92F HX  92
MESQUITE       CLOUDY    82  75  78 SE9       29.94R
LANCASTER      CLOUDY    83  72  70 SE10      29.94R
$$

TXZ091>094-102>105-117-120-121-131>134-260200-
NORTH CENTRAL TEXAS

CITY           SKY/WX    TMP DP  RH WIND       PRES   REMARKS
SHRMAN/DENISON CLEAR     79  69  73 SE13      29.91F
BRIDGEPORT     CLEAR     83  75  77 S10       29.91R
DECATUR        CLEAR     82  73  74 SE10      29.91S
DENTON         MOCLDY    82  74  76 SE14      29.90R
MCKINNEY       PTCLDY    82  75  79 S15       29.91F
ROCKWALL       CLOUDY    82  76  82 S9G17     29.92S
TERRELL        CLOUDY    83  74  74 S12       29.94F
WAXAHACHIE     CLOUDY    81  75  82 SE8       29.94S
CLEBURNE       MOCLDY    82  79  89 S12       29.94S HX  93
GRANBURY       MOCLDY    85  74  70 SE7       29.92R HX  93
$$

TXZ083>090-098>101-113>116-127>130-139>142-154-155-260200-
WESTERN NORTH TEXAS

CITY           SKY/WX    TMP DP  RH WIND       PRES   REMARKS
WICHITA FALLS  CLEAR     84  74  71 SE16      29.84R HX  91
WF-KICKAPOO    CLEAR     86  74  67 SE12      29.86R HX  94
VERNON         CLEAR     90  66  44 S13       29.82S HX  92
ABILENE        CLOUDY    85  71  63 S15       29.90R HX  90
ABILENE-DYESS  CLOUDY    85  69  58 SE17G28   29.89R
MINERAL WELLS  CLOUDY    83  75  77 S10       29.88R HX  90
STEPHENVILLE   CLOUDY    82  72  73 S6        29.96R
COMANCHE       CLOUDY    80  74  83 S9        29.95R
BROWNWOOD      CLOUDY    81  73  78 S7        29.94S HAZE
COLEMAN        CLOUDY    82  72  72 S7        29.94S
$$

TXZ143>147-156>162-174-175-260200-
CENTRAL TEXAS

CITY           SKY/WX    TMP DP  RH WIND       PRES   REMARKS
WACO           CLOUDY    83  74  74 SE12      29.93R HAZE
WACO-MCGREGOR  MOCLDY    82  76  81 SE12      29.94R
HILLSBORO      CLOUDY    81  74  79 SE12      29.94R
CORSICANA      CLOUDY    83  74  74 SE7       29.96R
MEXIA          CLOUDY    81  77  88 S10       29.96R
HEARNE         CLOUDY    82  74  77 SE7       29.97R
CAMERON        CLOUDY    82  75  79 SE5       29.96R
TEMPLE         CLOUDY    82  76  81 S13       29.95S
KILLEEN        CLOUDY    80  76  87 SE12      29.94S
KILLEEN-SKYLRK CLOUDY    81  75  82 SE14      29.95R
FORT HOOD      CLOUDY    80  75  85 S10       29.92F HAZE
HAMILTON       CLOUDY    80  74  82 S9        29.96R HAZE
LAMPASAS       MOCLDY    81  77  89 S7        29.95R
$$

TXZ095>097-106>112-122>126-135>138-148>153-164>167-260200-
EAST TEXAS

CITY           SKY/WX    TMP DP  RH WIND       PRES   REMARKS
PARIS          CLEAR     82  68  61 S14       29.95R
SULPHUR SPRNGS MOCLDY    84  73  69 S9        29.96S HX  90
MOUNT PLEASANT PTCLDY    83  73  71 S7        29.97R
GILMER         CLOUDY    83  74  74 SE7       29.97R HX  90
MINEOLA        CLOUDY    84  75  74 S3        29.96S HX  92
TYLER          CLOUDY    84  75  74 S6        29.96R HX  92
LONGVIEW       CLOUDY    82  75  79 SE8       29.96R
MARSHALL       CLOUDY    82  74  76 S6        30.00S
ATHENS         CLOUDY    81  75  83 S3        29.95S
PALESTINE      CLOUDY    83  77  81 CALM      29.98R HX  92
JACKSONVILLE   CLOUDY    81  75  80 S10       30.01R
CENTER         MOCLDY    83  76  78 S8        29.99R HX  91
NACOGDOCHES    CLOUDY    81  73  78 S8        29.98S
LUFKIN           N/A     81  73  76 S7        29.98R
$$

SUPPLEMENTAL OBSERVATIONS (CENTRAL)

CITY           SKY/WX    TMP DP  RH WIND       PRES   REMARKS
$$

SUPPLEMENTAL OBSERVATIONS (WEST)

CITY           SKY/WX    TMP DP  RH WIND       PRES   REMARKS
$$

SUPPLEMENTAL OBSERVATIONS (EAST)

CITY           SKY/WX    TMP DP  RH WIND       PRES   REMARKS
$$

SUPPLEMENTAL OBSERVATIONS ARE A COLLECTION OF AUTOMATED INSTRUMENTS
THAT ARE MAINTAINED BY A VARIETY OF FEDERAL AND STATE AGENCIES.
CERTAIN ELEMENTS...SUCH AS HUMIDITY VALUES AND SUSTAINED WIND
SPEEDS...MAY BE APPROXIMATED.




USA.gov is the U.S. government's official web portal to all federal, state and local government web resources and services.